FIN5YF EFHK-ESSV

Flight info

Callsign FIN5YF
Flight time 0h 55m
Altitude 34000
Route VALOX DCT PISIM DCT ALAMI DCT GOTAL
Aircraft A320/M-SDE3FGHIRWY/LB1

Departure

Time 2026-05-06 16:46
Airport Helsinki Vantaa Airport (EFHK)

Arrival

Time 2026-05-06 17:42
Airport Visby Airport (ESSV)
Time Latitude Longitude Altitude Speed Heading
2026-05-06 16:28 60.31905 24.96622 163 ft 0 kts 137°
2026-05-06 16:38 60.31916 24.96603 163 ft 4 kts 138°
2026-05-06 16:38 60.31936 24.96566 163 ft 4 kts 129°
2026-05-06 16:39 60.31946 24.96528 163 ft 4 kts 64°
2026-05-06 16:39 60.31931 24.96492 163 ft 4 kts 47°
2026-05-06 16:39 60.31920 24.96467 163 ft 0 kts 47°
2026-05-06 16:41 60.31920 24.96468 163 ft 0 kts 47°
2026-05-06 16:41 60.31938 24.96507 163 ft 8 kts 47°
2026-05-06 16:41 60.31980 24.96600 163 ft 11 kts 47°
2026-05-06 16:41 60.32036 24.96722 163 ft 11 kts 47°
2026-05-06 16:42 60.32086 24.96830 163 ft 10 kts 46°
2026-05-06 16:42 60.32143 24.96852 164 ft 9 kts 336°
2026-05-06 16:42 60.32216 24.96765 165 ft 16 kts 329°
2026-05-06 16:42 60.32330 24.96634 169 ft 21 kts 330°
2026-05-06 16:43 60.32460 24.96480 175 ft 22 kts 329°
2026-05-06 16:43 60.32597 24.96323 173 ft 24 kts 330°
2026-05-06 16:43 60.32748 24.96145 172 ft 26 kts 329°
2026-05-06 16:43 60.32902 24.95958 175 ft 26 kts 329°
2026-05-06 16:44 60.33042 24.95795 181 ft 22 kts 329°
2026-05-06 16:44 60.33169 24.95588 181 ft 23 kts 315°
2026-05-06 16:44 60.33189 24.95344 180 ft 20 kts 231°
2026-05-06 16:44 60.33104 24.95107 178 ft 21 kts 251°
2026-05-06 16:45 60.33113 24.94814 180 ft 21 kts 277°
2026-05-06 16:45 60.33119 24.94540 186 ft 18 kts 271°
2026-05-06 16:45 60.33089 24.94332 192 ft 8 kts 227°
2026-05-06 16:45 60.33055 24.94259 194 ft 10 kts 227°
2026-05-06 16:46 60.32877 24.93872 183 ft 72 kts 227°
2026-05-06 16:46 60.32396 24.92811 174 ft 131 kts 227°
2026-05-06 16:46 60.31713 24.91307 559 ft 144 kts 226°
2026-05-06 16:46 60.31033 24.89809 1236 ft 147 kts 228°
2026-05-06 16:47 60.30357 24.88125 1628 ft 166 kts 241°
2026-05-06 16:47 60.29909 24.85821 1931 ft 188 kts 259°
2026-05-06 16:47 60.29868 24.83029 2223 ft 213 kts 279°
2026-05-06 16:47 60.30223 24.79947 2620 ft 238 kts 280°
2026-05-06 16:48 60.30118 24.76541 3284 ft 252 kts 252°
2026-05-06 16:48 60.29475 24.73220 4201 ft 256 kts 249°
2026-05-06 16:48 60.28794 24.69869 5127 ft 260 kts 249°
2026-05-06 16:48 60.28099 24.66489 6069 ft 263 kts 249°
2026-05-06 16:49 60.27392 24.63058 6954 ft 266 kts 248°
2026-05-06 16:49 60.26678 24.59603 7824 ft 269 kts 249°
2026-05-06 16:49 60.25959 24.56109 8718 ft 271 kts 249°
2026-05-06 16:49 60.25233 24.52572 9617 ft 274 kts 249°
2026-05-06 16:50 60.24505 24.49029 10480 ft 274 kts 248°
2026-05-06 16:50 60.23638 24.45592 11043 ft 288 kts 244°
2026-05-06 16:50 60.22657 24.41894 11334 ft 308 kts 244°
2026-05-06 16:50 60.21964 24.39306 11757 ft 313 kts 244°
2026-05-06 16:51 60.20575 24.34173 12807 ft 317 kts 244°
2026-05-06 16:51 60.19516 24.30278 13624 ft 318 kts 244°
2026-05-06 16:51 60.18454 24.26368 14357 ft 319 kts 244°
2026-05-06 16:51 60.17390 24.22446 15081 ft 320 kts 244°
2026-05-06 16:52 60.16325 24.18520 15816 ft 321 kts 244°
2026-05-06 16:52 60.15258 24.14583 16540 ft 321 kts 244°
2026-05-06 16:52 60.14187 24.10636 17257 ft 322 kts 244°
2026-05-06 16:52 60.13109 24.06681 17974 ft 323 kts 243°
2026-05-06 16:53 60.12026 24.02723 18623 ft 324 kts 243°
2026-05-06 16:53 60.10950 23.98807 19227 ft 325 kts 243°
2026-05-06 16:53 60.09856 23.94831 19853 ft 326 kts 243°
2026-05-06 16:53 60.08763 23.90858 20501 ft 327 kts 243°
2026-05-06 16:54 60.07673 23.86861 21123 ft 327 kts 243°
2026-05-06 16:54 60.06608 23.82823 21689 ft 328 kts 244°
2026-05-06 16:54 60.05549 23.78747 22218 ft 332 kts 244°
2026-05-06 16:54 60.04481 23.74622 22786 ft 334 kts 243°
2026-05-06 16:55 60.03408 23.70488 23352 ft 336 kts 243°
2026-05-06 16:55 60.02327 23.66344 23860 ft 337 kts 243°
2026-05-06 16:55 60.01235 23.62177 24316 ft 339 kts 243°
2026-05-06 16:55 60.00135 23.58001 24752 ft 340 kts 243°
2026-05-06 16:56 59.99028 23.53818 25189 ft 342 kts 243°
2026-05-06 16:56 59.97913 23.49609 25608 ft 343 kts 243°
2026-05-06 16:56 59.96790 23.45383 26019 ft 345 kts 242°
2026-05-06 16:56 59.95661 23.41146 26429 ft 346 kts 242°
2026-05-06 16:57 59.94530 23.36905 26822 ft 348 kts 242°
2026-05-06 16:57 59.93388 23.32634 27207 ft 349 kts 242°
2026-05-06 16:57 59.92241 23.28353 27597 ft 351 kts 242°
2026-05-06 16:57 59.91088 23.24055 27974 ft 352 kts 242°
2026-05-06 16:58 59.89928 23.19740 28349 ft 354 kts 242°
2026-05-06 16:58 59.88761 23.15412 28715 ft 355 kts 241°
2026-05-06 16:58 59.87587 23.11066 28996 ft 358 kts 242°
2026-05-06 16:58 59.86403 23.06679 29270 ft 361 kts 241°
2026-05-06 16:59 59.85210 23.02265 29582 ft 363 kts 241°
2026-05-06 16:59 59.84006 22.97822 29903 ft 365 kts 241°
2026-05-06 16:59 59.82813 22.93439 30236 ft 366 kts 240°
2026-05-06 16:59 59.81598 22.88975 30504 ft 368 kts 240°
2026-05-06 17:00 59.80379 22.84505 30764 ft 369 kts 240°
2026-05-06 17:00 59.79153 22.80024 31020 ft 370 kts 240°
2026-05-06 17:00 59.77926 22.75545 31263 ft 371 kts 240°
2026-05-06 17:00 59.76691 22.71042 31542 ft 371 kts 240°
2026-05-06 17:01 59.75457 22.66554 31882 ft 369 kts 240°
2026-05-06 17:01 59.74231 22.62097 32219 ft 368 kts 240°
2026-05-06 17:01 59.73006 22.57655 32555 ft 367 kts 240°
2026-05-06 17:01 59.71785 22.53242 32901 ft 365 kts 240°
2026-05-06 17:02 59.70561 22.48835 33233 ft 364 kts 239°
2026-05-06 17:02 59.69340 22.44454 33564 ft 363 kts 239°
2026-05-06 17:02 59.68124 22.40082 33910 ft 362 kts 239°
2026-05-06 17:03 59.66119 22.32875 34034 ft 354 kts 239°
2026-05-06 17:03 59.63764 22.24435 34035 ft 349 kts 239°
2026-05-06 17:04 59.61403 22.16042 34035 ft 349 kts 239°
2026-05-06 17:04 59.59040 22.07680 34035 ft 349 kts 239°
2026-05-06 17:05 59.56676 21.99315 34035 ft 349 kts 239°
2026-05-06 17:05 59.54311 21.90973 34064 ft 348 kts 239°
2026-05-06 17:06 59.51937 21.82659 34056 ft 348 kts 239°
2026-05-06 17:06 59.49559 21.74358 34013 ft 349 kts 238°
2026-05-06 17:07 59.47160 21.66027 34012 ft 350 kts 238°
2026-05-06 17:07 59.44774 21.57741 34015 ft 351 kts 238°
2026-05-06 17:08 59.42362 21.49376 34012 ft 351 kts 238°
2026-05-06 17:08 59.39946 21.41032 34013 ft 352 kts 238°
2026-05-06 17:09 59.37520 21.32701 34021 ft 352 kts 238°
2026-05-06 17:09 59.35087 21.24366 34020 ft 352 kts 238°
2026-05-06 17:10 59.32646 21.16037 34021 ft 352 kts 238°
2026-05-06 17:10 59.30199 21.07713 33995 ft 353 kts 237°
2026-05-06 17:11 59.27736 20.99364 34028 ft 354 kts 237°
2026-05-06 17:11 59.25267 20.91031 34022 ft 354 kts 237°
2026-05-06 17:12 59.22792 20.82707 34018 ft 354 kts 237°
2026-05-06 17:12 59.20309 20.74389 34019 ft 355 kts 237°
2026-05-06 17:13 59.17717 20.66214 34023 ft 353 kts 231°
2026-05-06 17:13 59.14663 20.58718 34020 ft 353 kts 231°
2026-05-06 17:14 59.11628 20.51249 33983 ft 354 kts 230°
2026-05-06 17:14 59.08567 20.43728 33994 ft 356 kts 230°
2026-05-06 17:15 59.05483 20.36185 34000 ft 357 kts 230°
2026-05-06 17:15 59.02378 20.28629 34005 ft 357 kts 230°
2026-05-06 17:16 58.99276 20.21080 34009 ft 358 kts 230°
2026-05-06 17:16 58.96165 20.13545 34012 ft 358 kts 230°
2026-05-06 17:17 58.93040 20.06009 34039 ft 359 kts 230°
2026-05-06 17:17 58.89917 19.98501 34006 ft 358 kts 229°
2026-05-06 17:18 58.86783 19.90995 33998 ft 359 kts 229°
2026-05-06 17:18 58.83639 19.83473 33998 ft 361 kts 229°
2026-05-06 17:18 58.82059 19.79703 33867 ft 361 kts 229°
2026-05-06 17:19 58.80482 19.75947 33584 ft 358 kts 229°
2026-05-06 17:19 58.78918 19.72225 33307 ft 357 kts 229°
2026-05-06 17:19 58.77356 19.68516 33033 ft 355 kts 229°
2026-05-06 17:19 58.75802 19.64830 32762 ft 354 kts 229°
2026-05-06 17:20 58.74247 19.61155 32492 ft 353 kts 230°
2026-05-06 17:20 58.72715 19.57541 32228 ft 352 kts 230°
2026-05-06 17:20 58.71153 19.53863 31955 ft 351 kts 230°
2026-05-06 17:20 58.69631 19.50288 31706 ft 350 kts 230°
2026-05-06 17:21 58.68089 19.46667 31436 ft 350 kts 230°
2026-05-06 17:21 58.66542 19.43033 31166 ft 351 kts 230°
2026-05-06 17:21 58.64999 19.39414 30910 ft 350 kts 230°
2026-05-06 17:21 58.63458 19.35801 30666 ft 349 kts 230°
2026-05-06 17:22 58.61925 19.32206 30414 ft 345 kts 230°
2026-05-06 17:22 58.60411 19.28672 30038 ft 340 kts 230°
2026-05-06 17:22 58.58916 19.25194 29600 ft 335 kts 230°
2026-05-06 17:22 58.57442 19.21772 29208 ft 330 kts 230°
2026-05-06 17:23 58.55981 19.18385 29000 ft 333 kts 230°
2026-05-06 17:23 58.52977 19.11428 29019 ft 341 kts 230°
2026-05-06 17:24 58.49949 19.04419 28996 ft 341 kts 230°
2026-05-06 17:24 58.48389 19.01043 28559 ft 338 kts 222°
2026-05-06 17:24 58.46413 18.98655 28013 ft 339 kts 206°
2026-05-06 17:24 58.44163 18.97272 27423 ft 343 kts 198°
2026-05-06 17:25 58.41792 18.96275 26410 ft 356 kts 196°
2026-05-06 17:25 58.39341 18.95284 25562 ft 363 kts 197°
2026-05-06 17:25 58.36885 18.94140 24933 ft 363 kts 199°
2026-05-06 17:25 58.34470 18.92819 24376 ft 361 kts 201°
2026-05-06 17:26 58.32086 18.91355 23862 ft 358 kts 203°
2026-05-06 17:26 58.29729 18.89816 23315 ft 357 kts 204°
2026-05-06 17:26 58.27395 18.88256 22752 ft 355 kts 204°
2026-05-06 17:26 58.25073 18.86701 22216 ft 353 kts 203°
2026-05-06 17:27 58.22765 18.85171 21703 ft 351 kts 203°
2026-05-06 17:27 58.20461 18.83664 21165 ft 349 kts 202°
2026-05-06 17:27 58.18171 18.82179 20638 ft 348 kts 202°
2026-05-06 17:27 58.15880 18.80704 20133 ft 346 kts 202°
2026-05-06 17:28 58.13605 18.79245 19641 ft 345 kts 202°
2026-05-06 17:28 58.11344 18.77797 19095 ft 341 kts 202°
2026-05-06 17:28 58.09099 18.76359 18349 ft 339 kts 202°
2026-05-06 17:28 58.06869 18.74931 17519 ft 337 kts 202°
2026-05-06 17:29 58.04680 18.73531 16752 ft 335 kts 201°
2026-05-06 17:29 58.02477 18.72124 16274 ft 333 kts 201°
2026-05-06 17:29 58.00293 18.70730 15870 ft 330 kts 201°
2026-05-06 17:29 57.98125 18.69349 15465 ft 328 kts 201°
2026-05-06 17:30 57.95972 18.67977 15067 ft 325 kts 201°
2026-05-06 17:30 57.93831 18.66614 14671 ft 323 kts 201°
2026-05-06 17:30 57.91705 18.65267 14282 ft 322 kts 200°
2026-05-06 17:30 57.89591 18.63926 13891 ft 320 kts 200°
2026-05-06 17:31 57.87485 18.62589 13469 ft 319 kts 200°
2026-05-06 17:31 57.85390 18.61265 13072 ft 316 kts 200°
2026-05-06 17:31 57.83318 18.59956 12677 ft 313 kts 200°
2026-05-06 17:31 57.81255 18.58656 12285 ft 311 kts 200°
2026-05-06 17:32 57.79217 18.57377 11894 ft 309 kts 200°
2026-05-06 17:32 57.77189 18.56107 11629 ft 302 kts 199°
2026-05-06 17:32 57.75223 18.54876 11413 ft 295 kts 200°
2026-05-06 17:32 57.73278 18.53656 11015 ft 293 kts 200°
2026-05-06 17:33 57.71352 18.52444 10406 ft 291 kts 199°
2026-05-06 17:33 57.69460 18.51250 9968 ft 282 kts 199°
2026-05-06 17:33 57.67619 18.50090 9570 ft 278 kts 198°
2026-05-06 17:33 57.65811 18.48955 9174 ft 277 kts 198°
2026-05-06 17:34 57.63986 18.47815 8782 ft 276 kts 198°
2026-05-06 17:34 57.62164 18.46682 8379 ft 276 kts 198°
2026-05-06 17:34 57.60351 18.45556 7992 ft 274 kts 198°
2026-05-06 17:34 57.58537 18.44429 7590 ft 274 kts 198°
2026-05-06 17:35 57.56727 18.43303 7182 ft 274 kts 197°
2026-05-06 17:35 57.54918 18.42178 6767 ft 274 kts 197°
2026-05-06 17:35 57.53111 18.41057 6351 ft 274 kts 197°
2026-05-06 17:36 57.49529 18.38837 5481 ft 262 kts 197°
2026-05-06 17:36 57.47963 18.37279 5085 ft 255 kts 220°
2026-05-06 17:36 57.46906 18.34658 4664 ft 256 kts 247°
2026-05-06 17:36 57.46576 18.31437 4139 ft 254 kts 275°
2026-05-06 17:37 57.47009 18.28417 3986 ft 232 kts 294°
2026-05-06 17:37 57.47683 18.25778 3893 ft 220 kts 310°
2026-05-06 17:37 57.48803 18.24028 3784 ft 207 kts 338°
2026-05-06 17:37 57.50175 18.23458 3507 ft 203 kts
2026-05-06 17:38 57.51530 18.24092 3182 ft 202 kts 23°
2026-05-06 17:38 57.52844 18.25040 2858 ft 203 kts 23°
2026-05-06 17:38 57.54145 18.25969 2537 ft 196 kts 23°
2026-05-06 17:38 57.55395 18.26855 2230 ft 188 kts 24°
2026-05-06 17:39 57.56591 18.27705 1969 ft 180 kts 24°
2026-05-06 17:39 57.57751 18.28531 1755 ft 176 kts 25°
2026-05-06 17:39 57.58850 18.29310 1533 ft 163 kts 25°
2026-05-06 17:39 57.59870 18.30032 1341 ft 148 kts 25°
2026-05-06 17:40 57.60796 18.30679 1147 ft 137 kts 25°
2026-05-06 17:40 57.61668 18.31299 970 ft 133 kts 25°
2026-05-06 17:40 57.62529 18.31917 803 ft 132 kts 25°
2026-05-06 17:40 57.63393 18.32533 630 ft 133 kts 25°
2026-05-06 17:41 57.64252 18.33159 464 ft 133 kts 24°
2026-05-06 17:41 57.65099 18.33773 276 ft 131 kts 24°
2026-05-06 17:41 57.65924 18.34371 157 ft 113 kts 20°
2026-05-06 17:41 57.66405 18.34710 156 ft 53 kts 22°
2026-05-06 17:42 57.66722 18.34937 155 ft 45 kts 20°
2026-05-06 17:42 57.66957 18.35103 158 ft 31 kts 21°
2026-05-06 17:42 57.67105 18.35185 159 ft 16 kts 337°
2026-05-06 17:42 57.67149 18.35033 159 ft 10 kts 291°
2026-05-06 17:43 57.67146 18.34935 159 ft 7 kts 232°
2026-05-06 17:43 57.67106 18.34892 159 ft 6 kts 203°
2026-05-06 17:43 57.67066 18.34863 159 ft 6 kts 199°
2026-05-06 17:43 57.67022 18.34834 159 ft 10 kts 200°
2026-05-06 17:44 57.66931 18.34768 159 ft 18 kts 201°
2026-05-06 17:44 57.66794 18.34668 159 ft 23 kts 200°
2026-05-06 17:44 57.66642 18.34560 159 ft 24 kts 201°
2026-05-06 17:44 57.66478 18.34444 159 ft 26 kts 200°
2026-05-06 17:45 57.66303 18.34319 159 ft 28 kts 201°
2026-05-06 17:45 57.66119 18.34189 159 ft 27 kts 201°
2026-05-06 17:45 57.66011 18.34088 159 ft 9 kts 228°
2026-05-06 17:45 57.65976 18.33999 159 ft 7 kts 240°
2026-05-06 17:46 57.66000 18.33938 159 ft 6 kts 334°
2026-05-06 17:46 57.66019 18.33923 159 ft 0 kts 336°